UAL147 EGLL-KEWR

Flight info

Callsign UAL147
Flight time N/A
Altitude 34000
Route CPT DCT DIDZA L9 OKSAW DCT BIBPE DCT BUCGO DCT FELCA DCT NICXI DCT BAKUR DCT NEBIN/M079F350 DCT 5330N02000W 5230N03000W 5130N04000W 5030N05000W DCT BUDAR/N0450F360 DCT ALLEX DCT HANAA FLOSI4
Aircraft B763/H-SDE3FGHIM3RWXY/LB1

Departure

Time 2026-04-30 18:42
Airport London Heathrow Airport (EGLL)

Arrival

Time N/A
Airport Newark Liberty International Airport (KEWR)
Time Latitude Longitude Altitude Speed Heading
2026-04-30 17:58 51.47267 -0.44413 94 ft 0 kts 90°
2026-04-30 18:24 51.47267 -0.44445 94 ft 4 kts 90°
2026-04-30 18:24 51.47267 -0.44484 92 ft 1 kts 90°
2026-04-30 18:24 51.47268 -0.44521 92 ft 4 kts 104°
2026-04-30 18:25 51.47274 -0.44544 93 ft 4 kts 128°
2026-04-30 18:25 51.47322 -0.44558 93 ft 1 kts 180°
2026-04-30 18:25 51.47323 -0.44558 93 ft 0 kts 180°
2026-04-30 18:30 51.47309 -0.44558 93 ft 3 kts 180°
2026-04-30 18:30 51.47244 -0.44558 92 ft 6 kts 179°
2026-04-30 18:31 51.47194 -0.44557 94 ft 8 kts 179°
2026-04-30 18:31 51.47059 -0.44556 94 ft 11 kts 179°
2026-04-30 18:32 51.46887 -0.44554 94 ft 13 kts 179°
2026-04-30 18:32 51.46800 -0.44553 95 ft 12 kts 182°
2026-04-30 18:32 51.46752 -0.44711 94 ft 10 kts 269°
2026-04-30 18:33 51.46751 -0.44846 94 ft 14 kts 269°
2026-04-30 18:33 51.46751 -0.45192 94 ft 16 kts 269°
2026-04-30 18:33 51.46749 -0.45374 94 ft 17 kts 270°
2026-04-30 18:34 51.46748 -0.45561 96 ft 17 kts 269°
2026-04-30 18:34 51.46748 -0.45945 96 ft 15 kts 270°
2026-04-30 18:34 51.46748 -0.46110 94 ft 15 kts 269°
2026-04-30 18:35 51.46747 -0.46271 97 ft 14 kts 269°
2026-04-30 18:35 51.46747 -0.46424 95 ft 13 kts 271°
2026-04-30 18:35 51.46749 -0.46572 94 ft 13 kts 270°
2026-04-30 18:36 51.46747 -0.46860 97 ft 13 kts 270°
2026-04-30 18:36 51.46746 -0.47011 97 ft 14 kts 270°
2026-04-30 18:36 51.46746 -0.47326 95 ft 14 kts 270°
2026-04-30 18:37 51.46745 -0.47482 94 ft 14 kts 269°
2026-04-30 18:37 51.46744 -0.47635 94 ft 13 kts 270°
2026-04-30 18:37 51.46744 -0.47784 94 ft 13 kts 270°
2026-04-30 18:37 51.46743 -0.47931 94 ft 13 kts 270°
2026-04-30 18:38 51.46743 -0.48037 94 ft 6 kts 270°
2026-04-30 18:38 51.46743 -0.48066 94 ft 2 kts 270°
2026-04-30 18:38 51.46743 -0.48093 94 ft 4 kts 270°
2026-04-30 18:38 51.46743 -0.48148 94 ft 6 kts 270°
2026-04-30 18:39 51.46743 -0.48234 94 ft 9 kts 270°
2026-04-30 18:39 51.46742 -0.48349 94 ft 12 kts 269°
2026-04-30 18:39 51.46742 -0.48491 94 ft 14 kts 270°
2026-04-30 18:39 51.46742 -0.48657 94 ft 14 kts 270°
2026-04-30 18:40 51.46691 -0.48743 96 ft 12 kts 184°
2026-04-30 18:40 51.46606 -0.48763 97 ft 13 kts 197°
2026-04-30 18:40 51.46518 -0.48778 95 ft 12 kts 157°
2026-04-30 18:40 51.46478 -0.48686 94 ft 10 kts 92°
2026-04-30 18:41 51.46478 -0.48654 95 ft 0 kts 90°
2026-04-30 18:41 51.46478 -0.48653 95 ft 0 kts 90°
2026-04-30 18:42 51.46478 -0.48612 94 ft 14 kts 89°
2026-04-30 18:42 51.46490 -0.46415 135 ft 176 kts 88°
2026-04-30 18:42 51.46502 -0.44278 822 ft 198 kts 90°
2026-04-30 18:45 51.38927 -0.47113 6916 ft 275 kts 290°